Moses Lake, WA

5:34 PM PDT on June 28, 2017 (GMT -0700)
Grant County International

Weather History for KMWH - May, 2013

Change the Weather History Date:

Friday, May 17, 2013

  Actual Average Record
Temperature  
Mean Temperature 62 °F 60 °F  
Max Temperature 76 °F 74 °F 96 °F (2006)
Min Temperature 48 °F 45 °F 34 °F (1981)
Degree Days  
Heating Degree Days 3 6  
Month to date heating degree days 56 144  
Since 1 July heating degree days 5164 5761  
Cooling Degree Days 0 1  
Month to date cooling degree days 50 7  
Year to date cooling degree days 50 8  
Growing Degree Days 10 (Base 50)    
Moisture  
Dew Point 45 °F    
Average Humidity 57    
Maximum Humidity 80    
Minimum Humidity 33    
Precipitation  
Precipitation 0.00 in 0.02 in 0.22 in (1998)
Month to date precipitation 0.01 0.33  
Year to date precipitation 1.39 3.75  
Sea Level Pressure  
Sea Level Pressure 29.88 in    
Wind  
Wind Speed 6 mph (ESE)    
Max Wind Speed 18 mph    
Max Gust Speed 24 mph    
Visibility 10 miles    
Events      
T = Trace of Precipitation, MM = Missing Value Source: NWS Daily Summary

Daily Weather History Graph

Daily Weather History Graph

Search for Another Location

Airport or City:

Trip Planner

Search our weather history database for the weather conditions in past years. The results will help you decide how hot, cold, wet, or windy it might be!

Date:

Astronomy

May. 17, 2013 Rise Set
Actual Time 5:18 AM PDT 8:29 PM PDT
Civil Twilight 4:41 AM PDT 9:06 PM PDT
Nautical Twilight 3:54 AM PDT 9:54 PM PDT
Astronomical Twilight 2:55 AM PDT 10:54 PM PDT
Moon 12:08 PM PDT (5/17) 1:13 AM PDT (5/17)
Length of Visible Light 16h 24m
Length of Day
15h 11m
Waxing Crescent, 46% of the Moon is Illuminated
May 17
Waxing Crescent
May 17
First Quarter
May 24
Full
May 31
Last Quarter
Jun 8
New

Hourly Weather History & Observations

Time (PDT) Temp. Dew Point Humidity Pressure Visibility Wind Dir Wind Speed Gust Speed Precip Events Conditions
12:52 AM 52.0 °F 42.1 °F 69% 29.88 in 10.0 mi NNE 6.9 mph - N/A   Clear
1:52 AM 51.1 °F 42.1 °F 71% 29.87 in 10.0 mi North 4.6 mph - N/A   Clear
2:52 AM 53.1 °F 42.1 °F 66% 29.87 in 10.0 mi Calm Calm - N/A   Clear
3:52 AM 48.9 °F 42.1 °F 77% 29.87 in 10.0 mi North 4.6 mph - N/A   Clear
4:52 AM 50.0 °F 42.1 °F 74% 29.87 in 10.0 mi NNE 4.6 mph - N/A   Clear
5:52 AM 50.0 °F 42.1 °F 74% 29.88 in 10.0 mi NE 9.2 mph - N/A   Clear
6:52 AM 52.0 °F 43.0 °F 71% 29.89 in 10.0 mi Calm Calm - N/A   Clear
7:52 AM 57.0 °F 44.1 °F 62% 29.90 in 10.0 mi East 4.6 mph - N/A   Clear
8:52 AM 59.0 °F 46.0 °F 62% 29.89 in 10.0 mi ESE 3.5 mph - N/A   Clear
9:52 AM 63.0 °F 46.9 °F 56% 29.88 in 10.0 mi South 3.5 mph - N/A   Clear
10:52 AM 66.0 °F 46.9 °F 50% 29.89 in 10.0 mi Variable 3.5 mph - N/A   Clear
11:52 AM 69.1 °F 46.0 °F 44% 29.87 in 10.0 mi Variable 4.6 mph - N/A   Clear
1:52 PM 73.0 °F 42.1 °F 33% 29.85 in 10.0 mi South 10.4 mph 16.1 mph N/A   Clear
2:52 PM 73.9 °F 44.1 °F 34% 29.84 in 10.0 mi SW 9.2 mph 18.4 mph N/A   Clear
3:52 PM 73.9 °F 43.0 °F 33% 29.85 in 10.0 mi WSW 11.5 mph 18.4 mph N/A   Partly Cloudy
4:52 PM 64.9 °F 46.9 °F 52% 29.88 in 10.0 mi NE 13.8 mph - N/A   Overcast
5:52 PM 64.9 °F 46.0 °F 50% 29.88 in 10.0 mi NE 11.5 mph - N/A   Overcast
6:52 PM 64.9 °F 46.0 °F 50% 29.89 in 10.0 mi East 4.6 mph - N/A   Clear
7:52 PM 62.1 °F 48.0 °F 60% 29.90 in 10.0 mi SSE 12.7 mph - N/A   Mostly Cloudy
8:52 PM 61.0 °F 48.9 °F 64% 29.92 in 10.0 mi SSE 3.5 mph - N/A   Overcast
9:52 PM 60.1 °F 50.0 °F 69% 29.93 in 10.0 mi SE 3.5 mph - N/A   Overcast
10:52 PM 59.0 °F 51.1 °F 75% 29.93 in 10.0 mi Calm Calm - N/A   Overcast
11:52 PM 59.0 °F 50.0 °F 72% 29.92 in 10.0 mi South 4.6 mph - N/A   Overcast